| time (UTC) | temp F | wind direction | speed MPH | gust MPH | rain 1hr in | rain 24hr in | rain mn in | humidity % | barometer mb |
| 20260502224101 | 64 | 322 | 2.0 | 5.0 | 0.00 | 0.04 | 0.04 | 39 | 1013.3 |
| 20260502223546 | 64 | 300 | 1.0 | 4.0 | 0.00 | 0.04 | 0.04 | 40 | 1013.2 |
| 20260502222556 | 65 | 329 | 2.0 | 4.0 | 0.00 | 0.04 | 0.04 | 40 | 1013.1 |
| 20260502222046 | 65 | 319 | 2.0 | 5.0 | 0.00 | 0.04 | 0.04 | 41 | 1013.0 |
| 20260502221556 | 65 | 259 | 1.0 | 5.0 | 0.00 | 0.04 | 0.04 | 39 | 1012.9 |
| 20260502221104 | 65 | 335 | 2.0 | 4.0 | 0.00 | 0.04 | 0.04 | 39 | 1012.9 |
| 20260502220552 | 65 | 320 | 2.0 | 5.0 | 0.00 | 0.04 | 0.04 | 40 | 1012.8 |
| 20260502215055 | 65 | 320 | 1.0 | 4.0 | 0.00 | 0.04 | 0.04 | 37 | 1012.7 |
| 20260502214603 | 65 | 331 | 2.0 | 4.0 | 0.00 | 0.04 | 0.04 | 38 | 1012.6 |
| 20260502213603 | 66 | 356 | 3.0 | 5.0 | 0.00 | 0.04 | 0.04 | 38 | 1012.5 |
| 20260502213054 | 66 | 350 | 2.0 | 5.0 | 0.00 | 0.04 | 0.04 | 39 | 1012.4 |
| 20260502212601 | 66 | 326 | 1.0 | 3.0 | 0.00 | 0.04 | 0.04 | 41 | 1012.3 |
| 20260502212104 | 66 | 330 | 2.0 | 4.0 | 0.00 | 0.04 | 0.04 | 42 | 1012.3 |
| 20260502211556 | 67 | 309 | 2.0 | 5.0 | 0.00 | 0.04 | 0.04 | 42 | 1012.4 |
| 20260502211103 | 66 | 180 | 2.0 | 4.0 | 0.00 | 0.04 | 0.04 | 43 | 1012.3 |
| 20260502210506 | 66 | 353 | 1.0 | 5.0 | 0.00 | 0.04 | 0.04 | 43 | 1011.7 |
| 20260502205103 | 67 | 304 | 2.0 | 3.0 | 0.00 | 0.04 | 0.04 | 41 | 1012.1 |
| 20260502204551 | 67 | 324 | 2.0 | 4.0 | 0.00 | 0.04 | 0.04 | 43 | 1012.1 |
| 20260502204058 | 67 | 331 | 2.0 | 4.0 | 0.00 | 0.04 | 0.04 | 43 | 1012.1 |
| 20260502203545 | 67 | 326 | 1.0 | 3.0 | 0.00 | 0.04 | 0.04 | 43 | 1012.1 |
| 20260502202557 | 68 | 326 | 2.0 | 9.0 | 0.00 | 0.04 | 0.04 | 43 | 1012.1 |
| 20260502202045 | 68 | 259 | 1.0 | 9.0 | 0.00 | 0.04 | 0.04 | 45 | 1012.1 |
| 20260502201556 | 69 | 273 | 2.0 | 5.0 | 0.00 | 0.04 | 0.04 | 40 | 1012.0 |
| 20260502201046 | 68 | 205 | 2.0 | 10.0 | 0.00 | 0.04 | 0.04 | 42 | 1012.1 |
| 20260502200052 | 68 | 191 | 3.0 | 8.0 | 0.00 | 0.04 | 0.04 | 44 | 1012.0 |
| 20260502195553 | 68 | 349 | 2.0 | 4.0 | 0.00 | 0.04 | 0.04 | 44 | 1012.1 |
| 20260502195103 | 68 | 314 | 1.0 | 6.0 | 0.00 | 0.04 | 0.04 | 45 | 1012.1 |
| 20260502194553 | 68 | 205 | 3.0 | 6.0 | 0.00 | 0.04 | 0.04 | 49 | 1012.2 |
| 20260502194059 | 68 | 200 | 2.0 | 5.0 | 0.00 | 0.04 | 0.04 | 48 | 1012.2 |
| 20260502193549 | 68 | 335 | 2.0 | 5.0 | 0.00 | 0.04 | 0.04 | 48 | 1012.1 |
| 20260502193101 | 68 | 337 | 0.0 | 3.0 | 0.00 | 0.04 | 0.04 | 50 | 1012.2 |
| 20260502192546 | 69 | 339 | 2.0 | 7.0 | 0.00 | 0.04 | 0.04 | 48 | 1012.1 |
| 20260502192056 | 69 | 264 | 2.0 | 7.0 | 0.00 | 0.04 | 0.04 | 47 | 1012.1 |
| 20260502191600 | 68 | 273 | 1.0 | 5.0 | 0.00 | 0.04 | 0.04 | 48 | 1012.1 |
| 20260502191052 | 69 | 330 | 1.0 | 3.0 | 0.00 | 0.04 | 0.04 | 49 | 1012.1 |
| 20260502190600 | 68 | 346 | 1.0 | 3.0 | 0.00 | 0.04 | 0.04 | 49 | 1012.1 |
| 20260502190501 | 68 | 346 | 1.0 | 3.0 | 0.00 | 0.04 | 0.04 | 49 | 1011.6 |
| 20260502185108 | 69 | 195 | 2.0 | 6.0 | 0.00 | 0.04 | 0.04 | 48 | 1012.0 |
| 20260502184555 | 70 | 279 | 1.0 | 3.0 | 0.00 | 0.04 | 0.04 | 49 | 1012.1 |
| 20260502184057 | 69 | 318 | 1.0 | 8.0 | 0.00 | 0.04 | 0.04 | 54 | 1012.0 |
| 20260502183608 | 70 | 245 | 2.0 | 8.0 | 0.00 | 0.04 | 0.04 | 52 | 1012.0 |
| 20260502183054 | 69 | 340 | 1.0 | 8.0 | 0.00 | 0.04 | 0.04 | 54 | 1012.0 |
| 20260502182600 | 70 | 297 | 1.0 | 8.0 | 0.00 | 0.04 | 0.04 | 51 | 1012.1 |
| 20260502181556 | 70 | 221 | 3.0 | 6.0 | 0.00 | 0.04 | 0.04 | 55 | 1012.1 |
| 20260502180555 | 69 | 186 | 1.0 | 6.0 | 0.00 | 0.04 | 0.04 | 54 | 1012.2 |
| 20260502170120 | 67 | 297 | 1.0 | 5.0 | 0.00 | 0.04 | 0.04 | 62 | 1012.6 |
| 20260502162553 | 64 | 295 | 2.0 | 4.0 | 0.00 | 0.04 | 0.04 | 66 | 1012.9 |
| 20260502162058 | 63 | 272 | 1.0 | 2.0 | 0.00 | 0.04 | 0.04 | 67 | 1013.0 |
| 20260502161058 | 62 | 272 | 1.0 | 3.0 | 0.00 | 0.04 | 0.04 | 71 | 1013.0 |
| 20260502160546 | 61 | 272 | 2.0 | 3.0 | 0.00 | 0.04 | 0.04 | 70 | 1013.1 |
| 20260502152055 | 59 | 321 | 0.0 | 2.0 | 0.00 | 0.04 | 0.04 | 79 | 1013.3 |
| 20260502151603 | 58 | 321 | 1.0 | 2.0 | 0.00 | 0.04 | 0.04 | 79 | 1013.3 |
| 20260502151051 | 58 | 321 | 1.0 | 2.0 | 0.00 | 0.04 | 0.04 | 77 | 1013.2 |
| 20260502150606 | 58 | 319 | 1.0 | 2.0 | 0.00 | 0.04 | 0.04 | 79 | 1013.1 |
| 20260502140107 | 54 | 158 | 0.0 | 1.0 | 0.00 | 0.04 | 0.04 | 91 | 1012.6 |
| 20260502130549 | 53 | 160 | 0.0 | 0.0 | 0.01 | 0.04 | 0.04 | 95 | 1011.8 |
| 20260502123602 | 53 | 160 | 0.0 | 0.0 | 0.00 | 0.03 | 0.03 | 95 | 1012.9 |
| 20260502123056 | 53 | 160 | 0.0 | 0.0 | 0.00 | 0.03 | 0.03 | 95 | 1013.5 |
| 20260502122602 | 53 | 160 | 0.0 | 0.0 | 0.00 | 0.03 | 0.03 | 95 | 1013.4 |
| 20260502122054 | 53 | 160 | 0.0 | 0.0 | 0.00 | 0.03 | 0.03 | 95 | 1013.0 |
| 20260502121602 | 53 | 160 | 0.0 | 0.0 | 0.01 | 0.03 | 0.03 | 95 | 1012.5 |
| 20260502121054 | 53 | 160 | 0.0 | 0.0 | 0.01 | 0.03 | 0.03 | 95 | 1012.3 |
| 20260502115554 | 53 | 160 | 0.0 | 0.0 | 0.01 | 0.03 | 0.03 | 95 | 1012.1 |
| 20260502115104 | 53 | 160 | 0.0 | 0.0 | 0.01 | 0.03 | 0.03 | 95 | 1012.3 |
| 20260502115006 | 53 | 160 | 0.0 | 0.0 | 0.01 | 0.03 | 0.03 | 95 | 1011.9 |
| 20260502114603 | 53 | 160 | 0.0 | 0.0 | 0.01 | 0.03 | 0.03 | 95 | 1012.8 |
| 20260502114054 | 53 | 160 | 0.0 | 0.0 | 0.01 | 0.03 | 0.03 | 95 | 1012.7 |
| 20260502113545 | 53 | 160 | 0.0 | 0.0 | 0.01 | 0.03 | 0.03 | 95 | 1012.1 |
| 20260502113058 | 54 | 160 | 0.0 | 0.0 | 0.01 | 0.03 | 0.03 | 95 | 1011.7 |
| 20260502112545 | 54 | 159 | 0.0 | 0.0 | 0.01 | 0.03 | 0.03 | 95 | 1011.5 |
| 20260502112051 | 54 | 159 | 0.0 | 0.0 | 0.01 | 0.03 | 0.03 | 95 | 1012.0 |
| 20260502111556 | 54 | 159 | 0.0 | 0.0 | 0.00 | 0.02 | 0.02 | 95 | 1011.9 |
| 20260502111048 | 54 | 159 | 0.0 | 0.0 | 0.00 | 0.02 | 0.02 | 95 | 1012.0 |
| 20260502110559 | 54 | 159 | 0.0 | 0.0 | 0.00 | 0.02 | 0.02 | 95 | 1012.3 |
| 20260502110117 | 54 | 159 | 0.0 | 0.0 | 0.00 | 0.02 | 0.02 | 95 | 1012.6 |
| 20260502105555 | 54 | 160 | 0.0 | 0.0 | 0.00 | 0.02 | 0.02 | 95 | 1012.7 |
| 20260502105047 | 54 | 159 | 0.0 | 0.0 | 0.00 | 0.02 | 0.02 | 95 | 1012.7 |
| 20260502104553 | 55 | 160 | 0.0 | 0.0 | 0.00 | 0.02 | 0.02 | 95 | 1012.7 |
| 20260502104100 | 55 | 159 | 0.0 | 1.0 | 0.00 | 0.02 | 0.02 | 95 | 1012.8 |
| 20260502103549 | 55 | 159 | 0.0 | 3.0 | 0.00 | 0.02 | 0.02 | 95 | 1013.1 |
| 20260502103057 | 55 | 158 | 1.0 | 3.0 | 0.00 | 0.02 | 0.02 | 95 | 1013.0 |
| 20260502102545 | 55 | 178 | 1.0 | 3.0 | 0.00 | 0.02 | 0.02 | 95 | 1012.7 |
| 20260502102053 | 55 | 40 | 0.0 | 1.0 | 0.00 | 0.02 | 0.02 | 95 | 1012.3 |
| 20260502101601 | 55 | 40 | 0.0 | 1.0 | 0.00 | 0.02 | 0.02 | 95 | 1011.8 |
| 20260502101050 | 55 | 40 | 0.0 | 1.0 | 0.00 | 0.02 | 0.02 | 95 | 1012.0 |
| 20260502100556 | 55 | 40 | 0.0 | 0.0 | 0.00 | 0.02 | 0.02 | 95 | 1011.6 |
| 20260502091106 | 56 | 40 | 0.0 | 0.0 | 0.00 | 0.02 | 0.02 | 95 | 1011.6 |
| 20260502090553 | 56 | 40 | 0.0 | 0.0 | 0.00 | 0.02 | 0.02 | 95 | 1011.6 |
| 20260502071103 | 57 | 40 | 0.0 | 0.0 | 0.01 | 0.01 | 0.01 | 94 | 1012.1 |
| 20260502070552 | 57 | 40 | 0.0 | 0.0 | 0.01 | 0.01 | 0.01 | 94 | 1012.3 |
| 20260502065102 | 58 | 40 | 0.0 | 0.0 | 0.00 | 0.00 | 0.00 | 93 | 1012.6 |
| 20260502064554 | 58 | 40 | 0.0 | 0.0 | 0.00 | 0.00 | 0.00 | 93 | 1012.7 |
| 20260502064058 | 58 | 40 | 0.0 | 0.0 | 0.00 | 0.00 | 0.00 | 93 | 1012.8 |
| 20260502063545 | 58 | 40 | 0.0 | 0.0 | 0.00 | 0.00 | 0.00 | 93 | 1012.8 |
| 20260502062603 | 58 | 40 | 0.0 | 1.0 | 0.00 | 0.00 | 0.00 | 93 | 1012.8 |
| 20260502062053 | 58 | 40 | 0.0 | 0.0 | 0.00 | 0.00 | 0.00 | 93 | 1012.8 |
| 20260502061602 | 58 | 40 | 0.0 | 1.0 | 0.00 | 0.00 | 0.00 | 92 | 1012.8 |
| 20260502061056 | 58 | 40 | 0.0 | 1.0 | 0.00 | 0.00 | 0.00 | 92 | 1012.9 |
| 20260502060049 | 58 | 40 | 0.0 | 0.0 | 0.00 | 0.00 | 0.00 | 92 | 1012.9 |
| 20260502055556 | 58 | 40 | 0.0 | 0.0 | 0.00 | 0.00 | 0.00 | 91 | 1013.0 |
| 20260502055100 | 58 | 40 | 0.0 | 0.0 | 0.00 | 0.00 | 0.00 | 91 | 1013.0 |
| 20260502054549 | 58 | 40 | 0.0 | 0.0 | 0.00 | 0.00 | 0.00 | 91 | 1012.9 |
| 20260502054102 | 58 | 40 | 0.0 | 0.0 | 0.00 | 0.00 | 0.00 | 90 | 1012.9 |
| 20260502053552 | 58 | 40 | 0.0 | 1.0 | 0.00 | 0.00 | 0.00 | 90 | 1012.9 |
| 20260502052546 | 58 | 40 | 0.0 | 0.0 | 0.00 | 0.00 | 0.00 | 89 | 1013.1 |
| 20260502052056 | 58 | 40 | 0.0 | 0.0 | 0.00 | 0.00 | 0.00 | 89 | 1013.0 |
| 20260502051544 | 59 | 40 | 0.0 | 1.0 | 0.00 | 0.00 | 0.00 | 89 | 1013.1 |
| 20260502051054 | 59 | 40 | 0.0 | 1.0 | 0.00 | 0.00 | 0.00 | 89 | 1013.0 |
| 20260502050601 | 59 | 40 | 0.0 | 0.0 | 0.00 | 0.00 | 0.00 | 89 | 1012.8 |
| 20260502050052 | 59 | 40 | 0.0 | 0.0 | 0.00 | 0.00 | 0.00 | 89 | 1012.7 |
| 20260502045557 | 59 | 40 | 0.0 | 1.0 | 0.00 | 0.00 | 0.00 | 89 | 1012.9 |
| 20260502045045 | 59 | 40 | 0.0 | 1.0 | 0.00 | 0.00 | 0.00 | 89 | 1013.0 |
| 20260502044549 | 59 | 40 | 0.0 | 1.0 | 0.00 | 0.00 | 0.00 | 88 | 1013.1 |
| 20260502044058 | 59 | 40 | 0.0 | 0.0 | 0.00 | 0.00 | 0.00 | 88 | 1013.0 |
| 20260502043547 | 59 | 40 | 0.0 | 0.0 | 0.00 | 0.00 | 0.00 | 88 | 1012.8 |
| 20260502043055 | 59 | 40 | 0.0 | 0.0 | 0.00 | 0.00 | 0.00 | 88 | 1012.9 |
| 20260502042600 | 59 | 40 | 0.0 | 0.0 | 0.00 | 0.00 | 0.00 | 88 | 1012.9 |
| 20260502042050 | 59 | 40 | 0.0 | 0.0 | 0.00 | 0.00 | 0.00 | 88 | 1012.9 |
| 20260502041603 | 59 | 40 | 0.0 | 1.0 | 0.00 | 0.00 | 0.00 | 88 | 1012.9 |
| 20260502041047 | 59 | 40 | 0.0 | 1.0 | 0.00 | 0.00 | 0.00 | 88 | 1013.1 |
| 20260502040555 | 59 | 40 | 0.0 | 1.0 | 0.00 | 0.00 | 0.00 | 88 | 1013.3 |
| 20260502040510 | 58 | 40 | 0.0 | 1.0 | 0.00 | 0.00 | 0.00 | 88 | 1012.8 |
| 20260502040115 | 59 | 40 | 0.0 | 0.0 | 0.00 | 0.00 | 0.00 | 88 | 1013.4 |
| 20260502035558 | 59 | 40 | 0.0 | 0.0 | 0.00 | 0.00 | 0.00 | 88 | 1013.5 |
| 20260502034557 | 59 | 40 | 0.0 | 0.0 | 0.00 | 0.00 | 0.00 | 87 | 1013.5 |
| 20260502034047 | 59 | 40 | 0.0 | 0.0 | 0.00 | 0.00 | 0.00 | 87 | 1013.5 |
| 20260502033556 | 59 | 40 | 0.0 | 0.0 | 0.00 | 0.00 | 0.00 | 87 | 1013.5 |
| 20260502033104 | 59 | 40 | 0.0 | 0.0 | 0.00 | 0.00 | 0.00 | 87 | 1013.7 |
| 20260502032547 | 59 | 40 | 0.0 | 0.0 | 0.00 | 0.00 | 0.00 | 87 | 1013.6 |
| 20260502032057 | 59 | 40 | 0.0 | 0.0 | 0.00 | 0.00 | 0.00 | 87 | 1013.5 |
| 20260502031549 | 59 | 40 | 0.0 | 0.0 | 0.00 | 0.00 | 0.00 | 87 | 1013.6 |
| 20260502031056 | 59 | 40 | 0.0 | 0.0 | 0.00 | 0.00 | 0.00 | 87 | 1013.7 |
| 20260502030544 | 59 | 40 | 0.0 | 0.0 | 0.00 | 0.00 | 0.00 | 87 | 1013.7 |
| 20260502030127 | 59 | 40 | 0.0 | 0.0 | 0.00 | 0.00 | 0.00 | 87 | 1013.7 |
| 20260502024045 | 59 | 40 | 0.0 | 0.0 | 0.00 | 0.00 | 0.00 | 86 | 1013.7 |
| 20260502023553 | 60 | 40 | 0.0 | 0.0 | 0.00 | 0.00 | 0.00 | 86 | 1013.7 |
| 20260502023103 | 60 | 40 | 0.0 | 0.0 | 0.00 | 0.00 | 0.00 | 86 | 1013.7 |
| 20260502022547 | 60 | 40 | 0.0 | 1.0 | 0.00 | 0.00 | 0.00 | 86 | 1013.7 |
| 20260502022058 | 60 | 40 | 0.0 | 1.0 | 0.00 | 0.00 | 0.00 | 86 | 1013.7 |
| 20260502021546 | 60 | 40 | 0.0 | 0.0 | 0.00 | 0.00 | 0.00 | 86 | 1013.8 |
| 20260502021055 | 60 | 40 | 0.0 | 1.0 | 0.00 | 0.00 | 0.00 | 86 | 1013.7 |
| 20260502020546 | 60 | 40 | 0.0 | 1.0 | 0.00 | 0.00 | 0.00 | 85 | 1013.7 |
| 20260502020056 | 60 | 40 | 0.0 | 1.0 | 0.00 | 0.00 | 0.00 | 85 | 1013.6 |
| 20260502015556 | 60 | 40 | 0.0 | 2.0 | 0.00 | 0.00 | 0.00 | 85 | 1013.5 |
| 20260502014602 | 60 | 6 | 0.0 | 0.0 | 0.00 | 0.00 | 0.00 | 85 | 1013.4 |
| 20260502014054 | 60 | 6 | 0.0 | 0.0 | 0.00 | 0.00 | 0.00 | 85 | 1013.3 |
| 20260502013547 | 60 | 6 | 0.0 | 0.0 | 0.00 | 0.00 | 0.00 | 85 | 1013.2 |
| 20260502013059 | 60 | 6 | 0.0 | 0.0 | 0.00 | 0.00 | 0.00 | 85 | 1013.2 |
| 20260502012550 | 60 | 6 | 0.0 | 0.0 | 0.00 | 0.00 | 0.00 | 85 | 1013.1 |
| 20260502012101 | 60 | 6 | 0.0 | 0.0 | 0.00 | 0.00 | 0.00 | 84 | 1013.0 |
| 20260502011553 | 60 | 6 | 0.0 | 0.0 | 0.00 | 0.00 | 0.00 | 84 | 1012.9 |
| 20260502011103 | 60 | 6 | 0.0 | 0.0 | 0.00 | 0.00 | 0.00 | 84 | 1012.9 |
| 20260502010552 | 60 | 6 | 0.0 | 0.0 | 0.00 | 0.00 | 0.00 | 83 | 1012.8 |
| 20260502010059 | 60 | 6 | 0.0 | 0.0 | 0.00 | 0.00 | 0.00 | 84 | 1012.8 |
| 20260502005546 | 60 | 6 | 0.0 | 0.0 | 0.00 | 0.00 | 0.00 | 83 | 1012.7 |
| 20260502005058 | 60 | 6 | 0.0 | 0.0 | 0.00 | 0.00 | 0.00 | 83 | 1012.7 |
| 20260502004551 | 60 | 6 | 0.0 | 0.0 | 0.00 | 0.00 | 0.00 | 82 | 1012.6 |
| 20260502004059 | 60 | 6 | 0.0 | 0.0 | 0.00 | 0.00 | 0.00 | 82 | 1012.6 |
| 20260502003549 | 60 | 6 | 0.0 | 0.0 | 0.00 | 0.00 | 0.00 | 83 | 1012.6 |
| 20260502003055 | 60 | 6 | 0.0 | 0.0 | 0.00 | 0.00 | 0.00 | 83 | 1012.7 |
| 20260502002602 | 61 | 6 | 0.0 | 1.0 | 0.00 | 0.00 | 0.00 | 82 | 1012.8 |
| 20260502002056 | 61 | 6 | 0.0 | 1.0 | 0.00 | 0.00 | 0.00 | 81 | 1012.7 |
| 20260502001548 | 61 | 6 | 0.0 | 0.0 | 0.00 | 0.00 | 0.00 | 81 | 1012.7 |
| 20260502001100 | 61 | 6 | 0.0 | 0.0 | 0.00 | 0.00 | 0.00 | 81 | 1012.6 |
| 20260502000109 | 61 | 6 | 0.0 | 0.0 | 0.00 | 0.00 | 0.00 | 80 | 1012.5 |
| 20260501235552 | 61 | 6 | 0.0 | 0.0 | 0.00 | 0.00 | 0.00 | 79 | 1012.5 |
| 20260501235058 | 61 | 6 | 0.0 | 0.0 | 0.00 | 0.00 | 0.00 | 79 | 1012.5 |
| 20260501234607 | 61 | 6 | 0.0 | 0.0 | 0.00 | 0.00 | 0.00 | 79 | 1012.5 |
| 20260501233101 | 62 | 6 | 0.0 | 0.0 | 0.00 | 0.00 | 0.00 | 76 | 1012.2 |
| 20260501232044 | 62 | 6 | 0.0 | 0.0 | 0.00 | 0.00 | 0.00 | 76 | 1012.4 |
| 20260501231049 | 62 | 6 | 0.0 | 0.0 | 0.00 | 0.00 | 0.00 | 77 | 1012.5 |
| 20260501230600 | 62 | 6 | 0.0 | 1.0 | 0.00 | 0.00 | 0.00 | 76 | 1012.5 |
| 20260501230053 | 62 | 6 | 0.0 | 1.0 | 0.00 | 0.00 | 0.00 | 76 | 1012.4 |
| 20260501225600 | 62 | 32 | 0.0 | 1.0 | 0.00 | 0.00 | 0.00 | 75 | 1012.3 |
| 20260501224547 | 62 | 32 | 0.0 | 0.0 | 0.00 | 0.00 | 0.00 | 74 | 1012.6 |